STARLINK-11244 [DTC] (60926 NORAD) Tracking and Keplerian Element Data

This shows tracking and keplerian element data for the satellite.

Feedback or suggestion? Click here.




ElementValue
Catalog60926
NameSTARLINK-11244 [DTC]
Epoch Orbit596
Epoch Day286.91668981
Epoch Year2024
RAAN349.1268
Inclination53.1592
Eccentricity0.0001333
Argument of Perigee102.9273
Mean Anonmoly286.2818
Mean Motion15.69794532
Decay Rate-0.000762
L11 60926U 24155C 24286.91668981 -.00076200 00000+0 -62764-3 0 9994
L22 60926 53.1592 349.1268 0001333 102.9273 286.2818 15.69794532 5963



Live tracking and technical data element details for STARLINK-11244 [DTC] (NORAD 60926). STARLINK-11244 [DTC] can be tracked NOW for your location showing map with azimuth and elevation plus other details from your city location.







IsCatalogInMostPopularTable: catalog: 60926, numindb: 12
Update: records affected: 1



GetName: 60926 STARLINK-11244 [DTC]

Hit Count: updated at: Wed, 04 Dec 2024 18:45:40 GMT